Tillbaka till svenska Fidonet
English   Information   Debug  
FILM   0/18
FNEWS_PUBLISH   4701
FN_SYSOP   42000
FN_SYSOP_OLD1   71952
FTP_FIDO   0/2
FTSC_PUBLIC   0/13895
FUNNY   0/4886
GENEALOGY.EUR   0/71
GET_INFO   105
GOLDED   0/408
HAM   6149/16252
HOLYSMOKE   0/6791
HOT_SITES   0/1
HTMLEDIT   0/71
HUB203   466
HUB_100   264
HUB_400   39
HUMOR   0/29
IC   0/2851
INTERNET   0/424
INTERUSER   0/3
IP_CONNECT   719
JAMNNTPD   0/233
JAMTLAND   0/47
KATTY_KORNER   0/41
LAN   0/16
LINUX-USER   0/19
LINUXHELP   0/1155
LINUX   0/22251
LINUX_BBS   0/957
mail   18.68
mail_fore_ok   249
MENSA   0/341
MODERATOR   0/102
MONTE   0/992
MOSCOW_OKLAHOMA   0/1245
MUFFIN   0/783
MUSIC   0/321
N203_STAT   938
N203_SYSCHAT   313
NET203   321
NET204   69
NET_DEV   0/10
NORD.ADMIN   0/101
NORD.CHAT   0/2572
NORD.FIDONET   189
NORD.HARDWARE   0/28
NORD.KULTUR   0/114
NORD.PROG   0/32
NORD.SOFTWARE   0/88
NORD.TEKNIK   0/58
NORD   0/453
OCCULT_CHAT   0/93
OS2BBS   0/787
OS2DOSBBS   0/580
OS2HW   0/42
OS2INET   0/37
OS2LAN   0/134
OS2PROG   0/36
OS2REXX   0/113
OS2USER-L   207
OS2   0/4806
OSDEBATE   0/18996
PASCAL   0/490
PERL   0/457
PHP   0/45
POINTS   0/405
POLITICS   0/29554
POL_INC   0/14731
PSION   103
R20_ADMIN   1129
R20_AMATORRADIO   0/2
R20_BEST_OF_FIDONET   14
R20_CHAT   0/893
R20_DEPP   0/3
R20_DEV   399
R20_ECHO2   1615
R20_ECHOPRES   0/35
R20_ESTAT   0/719
R20_FIDONETPROG...
...RAM.MYPOINT
  0/2
R20_FIDONETPROGRAM   0/22
R20_FIDONET   0/248
R20_FILEFIND   0/24
R20_FILEFOUND   0/22
R20_HIFI   0/3
R20_INFO2   3505
R20_INTERNET   0/12940
R20_INTRESSE   0/60
R20_INTR_KOM   0/99
R20_KANDIDAT.CHAT   42
R20_KANDIDAT   28
R20_KOM_DEV   112
R20_KONTROLL   0/13360
R20_KORSET   0/18
R20_LOKALTRAFIK   0/24
R20_MODERATOR   0/1852
R20_NC   76
R20_NET200   245
R20_NETWORK.OTH...
...ERNETS
  0/13
R20_OPERATIVSYS...
...TEM.LINUX
  0/44
R20_PROGRAMVAROR   0/1
R20_REC2NEC   534
R20_SFOSM   0/341
R20_SF   0/108
R20_SPRAK.ENGLISH   0/1
R20_SQUISH   107
R20_TEST   2
R20_WORST_OF_FIDONET   20
RAR   0/9
RA_MULTI   106
RA_UTIL   0/162
REGCON.EUR   0/2066
REGCON   0/13
SCIENCE   0/1206
SF   0/239
SHAREWARE_SUPPORT   4352/5146
SHAREWRE   0/14
SIMPSONS   0/169
STATS_OLD1   0/2539.065
STATS_OLD2   0/2530
STATS_OLD3   0/2395.095
STATS_OLD4   0/1692.25
SURVIVOR   0/495
SYSOPS_CORNER   0/3
SYSOP   0/84
TAGLINES   0/112
TEAMOS2   0/4530
TECH   0/2617
TEST.444   0/105
TRAPDOOR   0/19
TREK   0/755
TUB   0/290
UFO   0/40
UNIX   0/1316
USA_EURLINK   0/102
USR_MODEMS   0/1
VATICAN   0/2740
VIETNAM_VETS   0/14
VIRUS   0/378
VIRUS_INFO   0/201
VISUAL_BASIC   0/473
WHITEHOUSE   0/5187
WIN2000   0/101
WIN32   0/30
WIN95   0/4291
WIN95_OLD1   5755/70272
WINDOWS   0/1517
WWB_SYSOP   0/419
WWB_TECH   0/810
ZCC-PUBLIC   0/1
ZEC   4

 
4DOS   0/134
ABORTION   0/7
ALASKA_CHAT   0/506
ALLFIX_FILE   0/1313
ALLFIX_FILE_OLD1   0/7997
ALT_DOS   0/152
AMATEUR_RADIO   0/1039
AMIGASALE   0/14
AMIGA   0/331
AMIGA_INT   0/1
AMIGA_PROG   0/20
AMIGA_SYSOP   0/26
ANIME   0/15
ARGUS   0/924
ASCII_ART   0/340
ASIAN_LINK   0/651
ASTRONOMY   0/417
AUDIO   0/92
AUTOMOBILE_RACING   0/105
BABYLON5   0/17862
BAG   135
BATPOWER   0/361
BBBS.ENGLISH   0/382
BBSLAW   0/109
BBS_ADS   0/5290
BBS_INTERNET   0/507
BIBLE   0/3563
BINKD   0/1119
BINKLEY   0/215
BLUEWAVE   0/2173
CABLE_MODEMS   0/25
CBM   0/46
CDRECORD   0/66
CDROM   0/20
CLASSIC_COMPUTER   0/378
COMICS   0/15
CONSPRCY   0/899
COOKING   38791
COOKING_OLD1   0/24719
COOKING_OLD2   0/40862
COOKING_OLD3   0/37489
COOKING_OLD4   0/35496
COOKING_OLD5   9370
C_ECHO   0/189
C_PLUSPLUS   0/31
DIRTY_DOZEN   0/201
DOORGAMES   0/2138
DOS_INTERNET   0/196
duplikat   6101
ECHOLIST   0/18295
EC_SUPPORT   0/318
ELECTRONICS   0/359
ELEKTRONIK.GER   1534
ENET.LINGUISTIC   0/13
ENET.POLITICS   0/4
ENET.SOFT   0/11701
ENET.SYSOP   34185
ENET.TALKS   0/32
ENGLISH_TUTOR   0/2000
EVOLUTION   0/1335
FDECHO   0/217
FDN_ANNOUNCE   0/7068
FIDONEWS   24642
FIDONEWS_OLD1   0/49742
FIDONEWS_OLD2   0/35949
FIDONEWS_OLD3   0/30874
FIDONEWS_OLD4   0/37224
FIDO_SYSOP   12899
FIDO_UTIL   0/180
FILEFIND   0/209
FILEGATE   0/212
Möte HAM, 16252 texter
 lista första sista föregående nästa
Text 5423, 993 rader
Skriven 2012-07-20 22:01:28 av Amsat List (1:323/120.0)
Ärende: [keps] orb12202.amsa
============================
[keps] orb12202.amsa

Sender: keps-bounces@amsat.org
Return-Path: <keps-bounces@amsat.org>
X-Rcpt: craig.healy@chowda.com
X-UIDL: 1342834254.139

SB KEPS @ AMSAT  $ORB12202.O
Orbital Elements  12202.OSCAR

HR AMSAT ORBITAL ELEMENTS FOR OSCAR SATELLITES
FROM WA5QGD FORT WORTH,TX July 20, 2012
Send SUBSCRIBE KEPS/UNSUBSCRIBE KEPS to majordomo@amsat.org only
BID: ORB12202.O
TO ALL RADIO AMATEURS BT

Satellite: AO-07
Catalog number: 07530
Epoch time:      12201.62616761
Element set:     434
Inclination:      101.4038 deg
RA of node:       197.5860 deg
Eccentricity:    0.0011582
Arg of perigee:   218.7615 deg
Mean anomaly:     141.2625 deg
Mean motion:   12.53590272 rev/day
Decay rate:       -2.7e-07 rev/day^2
Epoch rev:           72411
Checksum:              267

Satellite: FO-29
Catalog number: 24278
Epoch time:      12201.87049254
Element set:    0900
Inclination:      098.5861 deg
RA of node:       298.2513 deg
Eccentricity:    0.0349995
Arg of perigee:   304.8441 deg
Mean anomaly:     052.0244 deg
Mean motion:   13.52985103 rev/day
Decay rate:       -2.7e-07 rev/day^2
Epoch rev:           78637
Checksum:              324

Satellite: SO-33
Catalog number: 25509
Epoch time:      12201.89954958
Element set:    0281
Inclination:      031.4294 deg
RA of node:       148.5631 deg
Eccentricity:    0.0352300
Arg of perigee:   129.6238 deg
Mean anomaly:     233.6017 deg
Mean motion:   14.28792234 rev/day
Decay rate:       1.75e-06 rev/day^2
Epoch rev:           71733
Checksum:              304

Satellite: RS-22
Catalog number: 27939
Epoch time:      12202.69108904
Element set:     555
Inclination:      097.8101 deg
RA of node:       041.7851 deg
Eccentricity:    0.0013842
Arg of perigee:   154.5389 deg
Mean anomaly:     205.6501 deg
Mean motion:   14.64071857 rev/day
Decay rate:       2.87e-06 rev/day^2
Epoch rev:           47078
Checksum:              313

Satellite: VO-52
Catalog number: 28650
Epoch time:      12201.64364642
Element set:    0159
Inclination:      097.5963 deg
RA of node:       231.0093 deg
Eccentricity:    0.0025177
Arg of perigee:   295.8719 deg
Mean anomaly:     063.9912 deg
Mean motion:   14.83054690 rev/day
Decay rate:      1.165e-05 rev/day^2
Epoch rev:           38978
Checksum:              331

Satellite: HO-68
Catalog number: 36122
Epoch time:      12202.73471645
Element set:     663
Inclination:      100.3600 deg
RA of node:       261.4026 deg
Eccentricity:    0.0007704
Arg of perigee:   035.5896 deg
Mean anomaly:     324.5738 deg
Mean motion:   13.16296872 rev/day
Decay rate:       -4.4e-07 rev/day^2
Epoch rev:           12480
Checksum:              284

/EX
SB KEPS @ AMSAT  $ORB12202.D
Orbital Elements  12202.MICROS

HR AMSAT ORBITAL ELEMENTS FOR THE MICROSATS
FROM WA5QGD FORT WORTH,TX July 20, 2012
Send SUBSCRIBE KEPS/UNSUBSCRIBE KEPS to majordomo@amsat.org only
BID: ORB12202.D
TO ALL RADIO AMATEURS BT

Satellite: UO-11
Catalog number: 14781
Epoch time:      12201.76522033
Element set:    0942
Inclination:      097.9527 deg
RA of node:       260.9978 deg
Eccentricity:    0.0007894
Arg of perigee:   291.4702 deg
Mean anomaly:     068.5667 deg
Mean motion:   14.80497817 rev/day
Decay rate:       4.95e-06 rev/day^2
Epoch rev:           52475
Checksum:              343

Satellite: AO-16
Catalog number: 20439
Epoch time:      12201.85623339
Element set:     514
Inclination:      098.4326 deg
RA of node:       144.3184 deg
Eccentricity:    0.0011942
Arg of perigee:   063.3201 deg
Mean anomaly:     296.9201 deg
Mean motion:   14.32067279 rev/day
Decay rate:       1.07e-06 rev/day^2
Epoch rev:           17467
Checksum:              282

Satellite: LO-19
Catalog number: 20442
Epoch time:      12201.87428085
Element set:    0450
Inclination:      098.3975 deg
RA of node:       147.2271 deg
Eccentricity:    0.0012839
Arg of perigee:   055.5789 deg
Mean anomaly:     304.6603 deg
Mean motion:   14.32285122 rev/day
Decay rate:       1.81e-06 rev/day^2
Epoch rev:           17486
Checksum:              304

Satellite: AO-27
Catalog number: 22825
Epoch time:      12202.84400058
Element set:     154
Inclination:      098.5756 deg
RA of node:       145.1373 deg
Eccentricity:    0.0008475
Arg of perigee:   174.8024 deg
Mean anomaly:     185.3243 deg
Mean motion:   14.29472351 rev/day
Decay rate:       1.08e-06 rev/day^2
Epoch rev:           98128
Checksum:              299

Satellite: IO-26
Catalog number: 22826
Epoch time:      12201.85867016
Element set:     905
Inclination:      098.5694 deg
RA of node:       144.5289 deg
Eccentricity:    0.0008700
Arg of perigee:   172.0724 deg
Mean anomaly:     188.0594 deg
Mean motion:   14.29746850 rev/day
Decay rate:        9.0e-07 rev/day^2
Epoch rev:           98127
Checksum:              329

Satellite: GO-32
Catalog number: 25397
Epoch time:      12202.86053934
Element set:     828
Inclination:      098.3648 deg
RA of node:       179.9163 deg
Eccentricity:    0.0001416
Arg of perigee:   141.6691 deg
Mean anomaly:     218.4616 deg
Mean motion:   14.23283365 rev/day
Decay rate:       -4.4e-07 rev/day^2
Epoch rev:           72881
Checksum:              319

Satellite: NO-44
Catalog number: 26931
Epoch time:      12201.77778600
Element set:    0094
Inclination:      067.0515 deg
RA of node:       036.3442 deg
Eccentricity:    0.0007584
Arg of perigee:   258.3310 deg
Mean anomaly:     101.6956 deg
Mean motion:   14.29813160 rev/day
Decay rate:        6.2e-07 rev/day^2
Epoch rev:           56390
Checksum:              287

